Find CICERO-3

NORAD ID: 42849 Int'l Des: NNA 2017-042 Owner: GEOOPT Country: US operational
LEOCIRCULARRETROGRADESSO

現在のビュー

3D地球を読み込み中...

CICERO-3について

説明を読み込み中...

次回通過

Passes for default location (London). Set your location on the main map for personalized predictions.

高度履歴

Loading altitude history...

軌道要素

1 42849U 17042AA 26149.46447500 .00004953 00000-0 32887-3 0 9995
2 42849 97.4233 315.8775 0011496 160.0575 200.1105 15.07612763484393
Epoch: May 29, 2026 • Age: 20 hours

現在のステータス

高度 552.2 km
速度 7.59 km/s
衛星直下点 77.33°N, 176.54°W
打ち上げ日 Jul 14, 2017
運用期間 8.8 years
タイプ other

技術仕様

分類 Payload
質量 10.00 kg
乾燥質量 10.00 kg
総質量 10.00 kg
長さ 0.30 m
直径 0.20 m
スパン 0.60 m
形状 Box+2 pan
製造者 TYVAK
バスタイプ Cubesat 6U
フェーズステータス In Orbit
所有者/国 GEOOPT/US

Most Searched